Wetbulb
61.28 60.43 59.98 60.71 61.40 60.80 61.15 62.12 62.98 63.24 64.36 63.56 64.02 66.15 65.90 65.85 66.25 66.70 66.60 67.17 67.21 66.46
59.57 59.71 59.01 59.29 60.36 59.69 60.82 60.70 61.62 62.19 62.70 63.18 62.63 63.15 64.93 64.03 64.44 64.29 64.97 65.62 66.45 66.59
58.02 57.84 57.44 58.01 58.07 58.04 58.70 59.23 60.16 60.82 61.17 61.26 62.16 62.16 62.77 62.68 63.94 64.36 64.96 64.93 65.00 65.75
57.14 56.77 55.94 55.39 56.40 56.27 58.02 57.96 58.27 58.80 58.78 59.23 60.09 62.14 61.81 60.94 60.68 61.57 62.87 64.34 64.04 64.03
57.45 56.42 55.63 54.97 54.22 56.23 55.72 56.45 56.03 56.49 57.34 58.52 59.33 60.91 61.10 59.82 59.73 59.10 59.51 60.69 62.45 63.12
55.35 54.91 54.31 54.33 53.15 53.00 53.65 53.55 53.99 54.26 54.74 54.70 56.12 57.84 59.63 59.88 59.37 59.40 59.20 59.68 60.47 62.14
52.93 52.61 52.54 52.12 51.59 51.39 51.37 50.80 51.15 52.01 52.25 53.15 53.74 54.37 56.72 55.62 57.02 57.81 58.25 58.86 58.93 59.94
50.86 51.03 50.68 50.11 49.95 49.93 49.78 49.66 49.70 49.16 50.22 51.35 51.59 52.18 50.19 51.78 54.01 54.84 55.72 57.39 57.30 57.67
49.55 48.93 48.72 48.49 48.22 48.27 48.30 48.17 47.95 48.20 48.20 48.68 48.55 46.13 45.99 47.05 49.67 51.45 52.59 53.91 56.06 57.47
47.77 47.50 47.43 47.56 47.17 46.74 46.66 46.99 46.55 46.96 47.18 47.16 47.78 44.57 43.90 44.78 46.86 48.01 50.43 51.42 53.23 54.74
46.43 46.21 46.70 46.54 46.37 46.41 46.10 45.87 45.88 45.83 46.48 46.21 46.70 43.83 43.01 43.52 46.47 47.38 48.83 49.60 50.66 52.51
45.81 45.48 45.53 45.06 44.99 45.40 45.14 44.80 44.73 45.32 45.48 45.29 45.32 43.22 42.48 43.26 45.58 46.24 46.92 48.18 49.12 50.12
45.71 44.88 43.75 43.62 42.03 41.86 42.85 43.66 44.20 44.58 45.16 44.13 44.02 42.76 41.85 42.27 44.34 44.89 45.67 47.40 48.23 46.49
44.99 44.31 44.01 42.08 41.95 41.50 41.78 41.90 41.96 42.49 44.00 44.50 44.09 43.55 41.12 41.08 43.23 42.87 43.62 45.01 46.19 48.26
MSLP
1017.75 1017.40 1017.31 1018.15 1018.35 1018.03 1019.00 1017.64 1018.23 1017.86 1017.18 1016.48 1016.22 1016.01 1015.91 1015.74 1015.59 1015.37 1014.94 1014.89 1014.85 1014.55
1017.89 1018.13 1018.15 1018.51 1018.63 1018.34 1018.26 1017.97 1017.47 1017.33 1017.39 1016.60 1016.44 1016.10 1016.07 1016.05 1015.83 1015.39 1015.05 1014.76 1014.70 1014.52
1018.12 1018.42 1018.55 1018.51 1018.84 1019.07 1018.78 1018.16 1017.54 1017.27 1017.15 1016.93 1016.63 1016.69 1016.34 1016.06 1015.61 1015.08 1014.94 1014.65 1014.49 1014.32
1018.80 1018.90 1018.83 1018.72 1018.89 1019.18 1018.97 1018.38 1018.02 1017.97 1017.31 1016.92 1016.55 1016.54 1016.32 1015.85 1015.56 1015.15 1014.79 1014.58 1014.17 1014.06
1019.60 1019.65 1019.79 1019.60 1019.64 1019.76 1019.56 1019.04 1018.72 1018.52 1017.79 1017.18 1016.67 1016.45 1016.26 1015.82 1015.29 1015.29 1014.94 1014.76 1014.22 1013.72
1019.80 1019.91 1020.22 1020.15 1020.28 1020.19 1019.88 1019.52 1018.87 1018.52 1018.14 1017.61 1017.14 1016.85 1016.52 1016.08 1015.47 1015.24 1015.32 1015.00 1014.65 1013.79
1019.87 1020.11 1020.30 1020.36 1020.30 1020.24 1019.95 1019.44 1018.88 1018.58 1018.36 1017.82 1017.35 1016.87 1016.59 1016.54 1016.24 1015.58 1015.24 1015.27 1015.08 1014.12
1020.14 1020.26 1020.30 1020.21 1020.16 1020.06 1019.83 1019.39 1019.17 1018.50 1018.12 1017.65 1017.24 1016.96 1017.49 1017.24 1016.86 1016.44 1015.53 1015.54 1014.84 1014.25
1020.32 1020.26 1020.14 1020.03 1019.96 1019.87 1019.59 1019.34 1019.12 1018.74 1018.37 1017.87 1017.38 1017.22 1017.80 1017.71 1016.93 1016.17 1015.84 1015.69 1015.19 1014.29
1020.30 1020.19 1020.08 1020.05 1019.94 1019.71 1019.46 1019.30 1018.97 1018.66 1018.39 1017.91 1017.60 1017.51 1017.49 1017.45 1016.57 1016.21 1015.83 1015.55 1015.19 1014.56
1020.11 1020.02 1020.02 1019.96 1019.81 1019.72 1019.59 1019.22 1018.73 1018.31 1018.16 1017.82 1017.38 1017.59 1017.88 1017.16 1016.24 1015.65 1015.57 1015.49 1015.14 1014.94
1020.18 1019.96 1019.85 1019.66 1019.52 1019.40 1019.08 1018.71 1018.29 1018.00 1017.61 1017.47 1017.32 1017.27 1017.62 1017.29 1016.36 1015.23 1014.69 1014.89 1014.89 1014.61
1020.10 1020.08 1019.86 1019.67 1019.70 1019.49 1019.06 1018.34 1017.79 1017.19 1017.00 1017.03 1016.62 1016.61 1016.63 1016.71 1015.99 1015.24 1014.53 1014.49 1014.08 1014.33
1020.17 1020.03 1019.65 1019.58 1019.39 1019.09 1018.59 1018.00 1017.51 1016.97 1016.64 1016.31 1015.95 1015.80 1016.05 1015.89 1015.73 1015.34 1014.63 1014.04 1014.05 1013.80
Wind_Speed
9 6 7 4 2 3 3 1 6 7 6 6 7 6 6 3 4 4 5 6 6 6
9 9 6 5 5 4 4 5 5 5 8 7 6 6 5 4 5 3 4 5 6 7
7 5 5 5 5 6 6 8 9 8 7 7 6 6 5 4 5 5 3 3 5 6
6 4 3 3 3 5 8 8 10 11 11 9 8 7 6 7 6 7 6 5 4 5
5 6 6 7 7 8 7 7 8 11 11 12 11 9 8 8 7 9 8 7 8 7
6 6 6 6 6 7 8 9 10 10 10 11 12 11 9 8 7 6 8 8 8 8
5 5 5 6 7 8 9 10 12 12 12 11 11 12 9 11 10 8 7 7 7 7
5 5 6 7 8 9 10 10 12 12 13 12 10 8 12 12 10 9 9 9 7 5
6 7 8 9 10 10 10 10 10 11 11 12 10 12 11 12 12 11 9 10 10 8
7 9 9 10 10 11 11 11 11 11 11 11 12 10 13 15 11 11 11 10 9 8
9 10 10 11 11 11 11 12 11 11 12 11 11 10 11 14 14 11 11 11 10 10
9 11 12 13 14 13 12 12 11 11 12 12 12 8 10 11 11 12 12 11 11 11
10 11 12 12 12 12 13 13 11 13 12 12 12 10 7 10 9 10 8 11 11 8
11 11 11 12 11 11 12 12 12 13 12 12 11 11 8 9 10 9 8 8 8 8
Wind_Direction
73 74 69 84 139 120 282 355 329 342 354 17 18 8 2 339 302 272 256 256 257 260
61 48 64 48 6 356 327 323 338 338 339 359 3 5 3 8 3 331 290 275 267 261
97 86 57 29 4 337 319 326 327 331 333 336 342 342 351 349 9 11 1 318 299 288
58 54 62 92 31 348 331 339 329 323 326 325 329 332 337 348 351 353 357 346 339 319
50 49 35 31 21 356 349 341 338 332 332 327 325 326 326 334 346 341 342 342 340 331
53 50 40 26 6 349 341 336 333 332 331 332 330 328 324 328 335 333 326 332 334 351
43 22 2 354 345 334 327 321 321 318 313 318 321 329 341 338 329 326 319 318 323 343
11 344 332 330 326 322 316 315 313 315 309 311 312 309 349 331 322 317 322 307 305 317
329 323 327 325 322 315 314 313 311 310 309 310 306 342 334 331 317 313 306 299 307 314
325 321 323 316 311 311 313 306 301 299 301 302 303 317 322 325 316 306 295 292 295 300
326 318 315 309 306 304 301 295 294 297 296 296 296 306 303 316 309 299 289 287 289 282
322 316 315 311 310 307 305 304 300 296 296 294 292 292 286 296 301 293 301 297 287 288
317 315 313 316 312 308 303 301 306 305 304 299 298 299 256 287 296 285 283 292 292 250
310 306 312 308 305 303 303 305 303 301 300 302 306 307 295 281 299 290 288 287 278 278